Location: Cahas Mountain Overlook
(37.0833°N, 80.1000°W)
Time: 19:52:17
(UTC-04:00)

Tiros 1 - Pass Details

Date: 13 February 2026
Orbit: 618 x 649 km, 48.4° (Epoch: 13 March)

Event Time Altitude Azimuth Distance (km) Brightness Sun altitude
Rises 14:53:09 0° 307° (NW) 2,886 10.5 30.1°
Reaches altitude 10° 14:55:45 10° 319° (NW) 1,978 9.7 29.8°
Maximum altitude 14:59:37 27° 18° (NNE) 1,190 8.3 29.3°
Drops below altitude 10° 15:03:30 10° 77° (ENE) 1,978 9.3 28.8°
Sets 15:06:06 0° 89° (E) 2,885 10.1 28.4°
